BAW14K KJFK-EGLL

Flight info

Callsign BAW14K
Flight time 6h 22m
Altitude 39000
Route MERIT DCT HFD DCT PUT DCT WITCH DCT ALLEX N565B TUDEP/M082F400 DCT 52N050W 53N040W 54N030W 55N020W DCT RESNO DCT NETKI/N0475F410 DCT BOFUM Q37 MALUD Q38 NUGRA
Aircraft B772/H-SDE2E3FGHIJ5LORVWXY/LB1D1

Departure

Time 2026-05-06 07:53
Airport John F. Kennedy International Airport (KJFK)

Arrival

Time 2026-05-06 14:15
Airport London Heathrow Airport (EGLL)
Time Latitude Longitude Altitude Speed Heading
2026-05-06 07:20 40.64779 -73.79346 28 ft 0 kts 150°
2026-05-06 07:41 40.64790 -73.79354 28 ft 4 kts 150°
2026-05-06 07:41 40.64813 -73.79371 27 ft 4 kts 150°
2026-05-06 07:41 40.64831 -73.79385 26 ft 4 kts 126°
2026-05-06 07:41 40.64833 -73.79410 26 ft 3 kts 61°
2026-05-06 07:42 40.64821 -73.79440 25 ft 3 kts 61°
2026-05-06 07:42 40.64819 -73.79444 25 ft 0 kts 61°
2026-05-06 07:44 40.64837 -73.79402 26 ft 14 kts 61°
2026-05-06 07:44 40.64884 -73.79290 28 ft 14 kts 60°
2026-05-06 07:44 40.64932 -73.79179 28 ft 14 kts 60°
2026-05-06 07:44 40.64979 -73.79067 28 ft 14 kts 61°
2026-05-06 07:45 40.65026 -73.78957 28 ft 10 kts 60°
2026-05-06 07:45 40.65083 -73.78914 28 ft 10 kts
2026-05-06 07:45 40.65137 -73.78875 28 ft 9 kts 83°
2026-05-06 07:45 40.65141 -73.78791 28 ft 10 kts 82°
2026-05-06 07:46 40.65178 -73.78675 28 ft 16 kts 60°
2026-05-06 07:46 40.65227 -73.78561 29 ft 15 kts 61°
2026-05-06 07:46 40.65271 -73.78436 28 ft 15 kts 82°
2026-05-06 07:46 40.65234 -73.78309 30 ft 15 kts 121°
2026-05-06 07:47 40.65180 -73.78190 29 ft 15 kts 121°
2026-05-06 07:47 40.65126 -73.78070 27 ft 15 kts 121°
2026-05-06 07:47 40.65072 -73.77951 32 ft 15 kts 121°
2026-05-06 07:47 40.65018 -73.77833 29 ft 15 kts 121°
2026-05-06 07:48 40.64964 -73.77714 29 ft 15 kts 121°
2026-05-06 07:48 40.64911 -73.77596 26 ft 15 kts 121°
2026-05-06 07:48 40.64857 -73.77478 30 ft 15 kts 121°
2026-05-06 07:48 40.64803 -73.77359 28 ft 15 kts 121°
2026-05-06 07:49 40.64756 -73.77255 27 ft 10 kts 121°
2026-05-06 07:49 40.64762 -73.77186 26 ft 8 kts 53°
2026-05-06 07:49 40.64795 -73.77128 27 ft 10 kts 54°
2026-05-06 07:49 40.64856 -73.77017 27 ft 19 kts 54°
2026-05-06 07:50 40.64931 -73.76878 30 ft 19 kts 54°
2026-05-06 07:50 40.64988 -73.76774 29 ft 9 kts 58°
2026-05-06 07:50 40.64972 -73.76697 31 ft 9 kts 121°
2026-05-06 07:50 40.64973 -73.76624 28 ft 9 kts 41°
2026-05-06 07:51 40.65026 -73.76584 30 ft 9 kts 30°
2026-05-06 07:51 40.65079 -73.76543 30 ft 9 kts 30°
2026-05-06 07:51 40.65099 -73.76488 31 ft 7 kts 103°
2026-05-06 07:51 40.65080 -73.76429 27 ft 7 kts 121°
2026-05-06 07:52 40.65054 -73.76376 27 ft 7 kts 124°
2026-05-06 07:52 40.65008 -73.76369 27 ft 7 kts 198°
2026-05-06 07:52 40.64900 -73.76451 32 ft 42 kts 211°
2026-05-06 07:52 40.64449 -73.76803 28 ft 107 kts 211°
2026-05-06 07:53 40.63645 -73.77428 58 ft 155 kts 210°
2026-05-06 07:53 40.62697 -73.78177 614 ft 163 kts 209°
2026-05-06 07:53 40.61713 -73.78936 1451 ft 161 kts 212°
2026-05-06 07:53 40.60646 -73.79319 2096 ft 176 kts 181°
2026-05-06 07:54 40.59451 -73.78480 2281 ft 220 kts 143°
2026-05-06 07:54 40.58696 -73.76555 2623 ft 253 kts 109°
2026-05-06 07:54 40.58767 -73.74170 3094 ft 273 kts 76°
2026-05-06 07:54 40.59720 -73.71981 3553 ft 282 kts 45°
2026-05-06 07:55 40.61303 -73.70508 4050 ft 281 kts 25°
2026-05-06 07:55 40.63079 -73.69232 4353 ft 296 kts 25°
2026-05-06 07:55 40.64876 -73.67950 5145 ft 292 kts 25°
2026-05-06 07:55 40.66656 -73.66684 5880 ft 291 kts 26°
2026-05-06 07:56 40.68439 -73.65406 6345 ft 299 kts 26°
2026-05-06 07:56 40.70274 -73.64065 6840 ft 305 kts 27°
2026-05-06 07:56 40.72149 -73.62674 7314 ft 312 kts 27°
2026-05-06 07:56 40.74055 -73.61260 7900 ft 316 kts 27°
2026-05-06 07:57 40.74244 -73.61119 7942 ft 317 kts 27°
2026-05-06 07:57 40.75975 -73.59838 8431 ft 321 kts 27°
2026-05-06 07:57 40.77937 -73.58389 8976 ft 325 kts 27°
2026-05-06 07:57 40.79926 -73.56923 9483 ft 330 kts 27°
2026-05-06 07:58 40.81938 -73.55441 10014 ft 334 kts 27°
2026-05-06 07:58 40.84004 -73.53921 10276 ft 350 kts 27°
2026-05-06 07:58 40.86184 -73.52320 10542 ft 365 kts 27°
2026-05-06 07:58 40.88430 -73.50667 11084 ft 373 kts 27°
2026-05-06 07:59 40.90718 -73.48981 11754 ft 379 kts 27°
2026-05-06 07:59 40.93031 -73.47275 12553 ft 383 kts 27°
2026-05-06 07:59 40.95369 -73.45550 13400 ft 387 kts 27°
2026-05-06 07:59 40.97733 -73.43804 14206 ft 391 kts 27°
2026-05-06 08:00 41.00116 -73.42043 14994 ft 394 kts 26°
2026-05-06 08:00 41.02498 -73.40282 15774 ft 396 kts 26°
2026-05-06 08:00 41.04932 -73.38480 16596 ft 399 kts 25°
2026-05-06 08:00 41.07368 -73.36676 17383 ft 402 kts 25°
2026-05-06 08:01 41.09819 -73.34860 18165 ft 405 kts 24°
2026-05-06 08:01 41.12289 -73.33028 18826 ft 409 kts 24°
2026-05-06 08:01 41.14787 -73.31174 19485 ft 412 kts 25°
2026-05-06 08:01 41.17303 -73.29304 20137 ft 416 kts 25°
2026-05-06 08:02 41.19839 -73.27418 20789 ft 420 kts 25°
2026-05-06 08:02 41.22395 -73.25514 21471 ft 423 kts 25°
2026-05-06 08:02 41.24968 -73.23595 22155 ft 426 kts 25°
2026-05-06 08:02 41.27565 -73.21656 22831 ft 429 kts 25°
2026-05-06 08:03 41.30174 -73.19708 23495 ft 433 kts 25°
2026-05-06 08:03 41.32810 -73.17738 24047 ft 436 kts 25°
2026-05-06 08:03 41.35439 -73.15698 24606 ft 440 kts 30°
2026-05-06 08:03 41.37836 -73.13119 25123 ft 449 kts 42°
2026-05-06 08:04 41.39906 -73.09975 25674 ft 455 kts 52°
2026-05-06 08:04 41.41606 -73.06394 26202 ft 459 kts 58°
2026-05-06 08:04 41.43203 -73.02689 26725 ft 463 kts 58°
2026-05-06 08:04 41.44799 -72.98955 27230 ft 466 kts 58°
2026-05-06 08:05 41.46418 -72.95187 27749 ft 470 kts 58°
2026-05-06 08:05 41.48051 -72.91422 28407 ft 467 kts 57°
2026-05-06 08:05 41.49684 -72.87679 29046 ft 467 kts 57°
2026-05-06 08:05 41.51328 -72.83929 29466 ft 471 kts 57°
2026-05-06 08:06 41.52994 -72.80136 29836 ft 476 kts 57°
2026-05-06 08:06 41.54674 -72.76308 30200 ft 479 kts 57°
2026-05-06 08:06 41.56339 -72.72506 30565 ft 482 kts 57°
2026-05-06 08:06 41.58055 -72.68582 30960 ft 484 kts 57°
2026-05-06 08:07 41.59751 -72.64694 31276 ft 487 kts 57°
2026-05-06 08:07 41.61462 -72.60769 31559 ft 491 kts 56°
2026-05-06 08:07 41.63181 -72.56821 31940 ft 491 kts 56°
2026-05-06 08:07 41.64902 -72.52876 32360 ft 491 kts 56°
2026-05-06 08:08 41.66655 -72.48952 32698 ft 493 kts 55°
2026-05-06 08:08 41.68413 -72.45069 32927 ft 497 kts 54°
2026-05-06 08:08 41.70214 -72.41105 33184 ft 500 kts 54°
2026-05-06 08:08 41.72017 -72.37124 33487 ft 502 kts 54°
2026-05-06 08:09 41.73847 -72.33066 33795 ft 503 kts 54°
2026-05-06 08:09 41.75652 -72.29045 34059 ft 505 kts 54°
2026-05-06 08:09 41.77460 -72.25008 34291 ft 507 kts 54°
2026-05-06 08:09 41.79270 -72.20956 34554 ft 507 kts 54°
2026-05-06 08:10 41.81056 -72.16952 34913 ft 506 kts 54°
2026-05-06 08:10 41.82879 -72.12861 35242 ft 506 kts 54°
2026-05-06 08:10 41.84663 -72.08855 35464 ft 507 kts 54°
2026-05-06 08:10 41.86471 -72.04792 35733 ft 507 kts 54°
2026-05-06 08:11 41.88270 -72.00738 36027 ft 506 kts 54°
2026-05-06 08:11 41.90071 -71.96678 36311 ft 506 kts 54°
2026-05-06 08:11 41.91870 -71.92618 36575 ft 506 kts 54°
2026-05-06 08:11 41.93678 -71.88565 36848 ft 504 kts 52°
2026-05-06 08:12 41.95664 -71.84738 37196 ft 497 kts 46°
2026-05-06 08:12 41.97867 -71.81187 37509 ft 492 kts 40°
2026-05-06 08:12 42.00286 -71.77955 37663 ft 490 kts 37°
2026-05-06 08:12 42.02751 -71.74788 37912 ft 489 kts 37°
2026-05-06 08:13 42.05212 -71.71633 38200 ft 488 kts 36°
2026-05-06 08:13 42.07657 -71.68483 38493 ft 487 kts 37°
2026-05-06 08:13 42.10096 -71.65321 38712 ft 487 kts 37°
2026-05-06 08:13 42.12531 -71.62144 38824 ft 488 kts 37°
2026-05-06 08:14 42.17422 -71.55729 38918 ft 493 kts 37°
2026-05-06 08:14 42.22311 -71.49284 38902 ft 489 kts 37°
2026-05-06 08:15 42.27156 -71.42882 38903 ft 486 kts 37°
2026-05-06 08:15 42.31158 -71.37591 38922 ft 484 kts 37°
2026-05-06 08:16 42.35980 -71.31206 38913 ft 485 kts 38°
2026-05-06 08:16 42.40801 -71.24807 38924 ft 487 kts 38°
2026-05-06 08:17 42.45640 -71.18366 38923 ft 488 kts 38°
2026-05-06 08:17 42.50487 -71.11899 38916 ft 490 kts 38°
2026-05-06 08:18 42.55351 -71.05395 38912 ft 492 kts 38°
2026-05-06 08:18 42.60218 -70.98870 38910 ft 493 kts 38°
2026-05-06 08:19 42.65095 -70.92319 38924 ft 494 kts 38°
2026-05-06 08:19 42.69688 -70.85292 38904 ft 503 kts 49°
2026-05-06 08:20 42.73431 -70.77483 38899 ft 505 kts 52°
2026-05-06 08:20 42.76730 -70.70383 38911 ft 504 kts 52°
2026-05-06 08:21 42.80274 -70.62806 38891 ft 504 kts 52°
2026-05-06 08:21 42.83561 -70.55826 38886 ft 504 kts 52°
2026-05-06 08:22 42.87189 -70.48135 38872 ft 503 kts 52°
2026-05-06 08:22 42.90967 -70.40108 38907 ft 503 kts 52°
2026-05-06 08:23 42.94736 -70.32074 38907 ft 504 kts 52°
2026-05-06 08:23 42.98512 -70.23998 38894 ft 505 kts 52°
2026-05-06 08:24 43.02286 -70.15903 38901 ft 505 kts 53°
2026-05-06 08:24 43.06053 -70.07802 38904 ft 505 kts 53°
2026-05-06 08:25 43.09819 -69.99680 38909 ft 505 kts 53°
2026-05-06 08:25 43.13545 -69.91624 38923 ft 505 kts 53°
2026-05-06 08:26 43.17300 -69.83482 38909 ft 505 kts 53°
2026-05-06 08:26 43.21037 -69.75357 38926 ft 505 kts 53°
2026-05-06 08:27 43.24772 -69.67215 38920 ft 505 kts 53°
2026-05-06 08:27 43.28499 -69.59066 38920 ft 505 kts 53°
2026-05-06 08:28 43.32218 -69.50912 38932 ft 505 kts 54°
2026-05-06 08:28 43.35944 -69.42722 38923 ft 505 kts 54°
2026-05-06 08:29 43.39656 -69.34538 38923 ft 505 kts 54°
2026-05-06 08:29 43.43368 -69.26332 38930 ft 505 kts 54°
2026-05-06 08:30 43.47063 -69.18138 38942 ft 505 kts 54°
2026-05-06 08:30 43.50748 -69.09946 38931 ft 504 kts 54°
2026-05-06 08:31 43.54434 -69.01726 38939 ft 504 kts 55°
2026-05-06 08:31 43.58114 -68.93500 38934 ft 504 kts 55°
2026-05-06 08:32 43.61786 -68.85266 38946 ft 504 kts 55°
2026-05-06 08:32 43.65456 -68.77014 38939 ft 505 kts 55°
2026-05-06 08:33 43.69122 -68.68748 38932 ft 504 kts 56°
2026-05-06 08:33 43.72748 -68.60547 38942 ft 503 kts 56°
2026-05-06 08:34 43.78189 -68.48200 38943 ft 502 kts 56°
2026-05-06 08:35 43.81813 -68.39945 38943 ft 501 kts 56°
2026-05-06 08:35 43.85430 -68.31686 38946 ft 501 kts 56°
2026-05-06 08:36 43.89039 -68.23420 38953 ft 502 kts 56°
2026-05-06 08:36 43.92647 -68.15131 38949 ft 502 kts 56°
2026-05-06 08:37 43.96250 -68.06831 38955 ft 502 kts 57°
2026-05-06 08:37 43.99842 -67.98532 38952 ft 501 kts 57°
2026-05-06 08:38 44.03428 -67.90222 38949 ft 501 kts 58°
2026-05-06 08:38 44.07003 -67.81915 38958 ft 501 kts 58°
2026-05-06 08:39 44.10569 -67.73603 38953 ft 500 kts 58°
2026-05-06 08:39 44.14129 -67.65284 38973 ft 500 kts 58°
2026-05-06 08:40 44.17683 -67.56951 38967 ft 501 kts 58°
2026-05-06 08:40 44.21237 -67.48598 38949 ft 500 kts 59°
2026-05-06 08:41 44.24777 -67.40251 38956 ft 500 kts 59°
2026-05-06 08:41 44.28306 -67.31904 38978 ft 500 kts 59°
2026-05-06 08:42 44.31835 -67.23535 38966 ft 500 kts 59°
2026-05-06 08:42 44.35359 -67.15151 38965 ft 500 kts 59°
2026-05-06 08:43 44.38877 -67.06759 38965 ft 501 kts 59°
2026-05-06 08:43 44.42581 -66.98528 38963 ft 500 kts 52°
2026-05-06 08:44 44.47054 -66.91173 38969 ft 499 kts 47°
2026-05-06 08:44 44.51660 -66.83885 38969 ft 500 kts 47°
2026-05-06 08:45 44.56240 -66.76563 38959 ft 500 kts 47°
2026-05-06 08:45 44.60800 -66.69191 38953 ft 500 kts 48°
2026-05-06 08:46 44.65345 -66.61800 38950 ft 500 kts 48°
2026-05-06 08:46 44.69889 -66.54390 38950 ft 500 kts 48°
2026-05-06 08:47 44.74429 -66.46971 38956 ft 500 kts 48°
2026-05-06 08:47 44.78959 -66.39552 38952 ft 500 kts 48°
2026-05-06 08:48 44.83490 -66.32112 38953 ft 500 kts 48°
2026-05-06 08:48 44.88008 -66.24674 38971 ft 500 kts 48°
2026-05-06 08:49 44.92527 -66.17213 38962 ft 500 kts 49°
2026-05-06 08:49 44.97012 -66.09790 38970 ft 500 kts 49°
2026-05-06 08:50 45.01546 -66.02265 38984 ft 500 kts 49°
2026-05-06 08:50 45.06025 -65.94813 38958 ft 501 kts 49°
2026-05-06 08:51 45.10562 -65.87243 38955 ft 501 kts 49°
2026-05-06 08:51 45.15034 -65.79761 38950 ft 502 kts 49°
2026-05-06 08:52 45.19542 -65.72201 38953 ft 502 kts 49°
2026-05-06 08:52 45.24045 -65.64626 38950 ft 503 kts 49°
2026-05-06 08:53 45.28553 -65.57024 38959 ft 503 kts 49°
2026-05-06 08:53 45.33057 -65.49408 38961 ft 503 kts 49°
2026-05-06 08:54 45.37554 -65.41782 38954 ft 504 kts 49°
2026-05-06 08:54 45.42052 -65.34134 38962 ft 504 kts 49°
2026-05-06 08:55 45.46544 -65.26475 38964 ft 504 kts 50°
2026-05-06 08:55 45.51031 -65.18806 38966 ft 504 kts 50°
2026-05-06 08:56 45.55519 -65.11111 38963 ft 505 kts 50°
2026-05-06 08:56 45.60008 -65.03394 38950 ft 505 kts 50°
2026-05-06 08:57 45.64471 -64.95698 38960 ft 501 kts 49°
2026-05-06 08:57 45.68903 -64.88039 38941 ft 498 kts 50°
2026-05-06 08:58 45.73298 -64.80423 38938 ft 495 kts 50°
2026-05-06 08:58 45.77677 -64.72813 38938 ft 494 kts 50°
2026-05-06 08:59 45.82068 -64.65162 38948 ft 500 kts 50°
2026-05-06 08:59 45.86506 -64.57408 38935 ft 505 kts 50°
2026-05-06 09:00 45.90974 -64.49578 38936 ft 508 kts 50°
2026-05-06 09:00 45.95455 -64.41703 38930 ft 509 kts 50°
2026-05-06 09:01 45.99922 -64.33829 38921 ft 507 kts 50°
2026-05-06 09:01 46.04365 -64.25976 38931 ft 504 kts 50°
2026-05-06 09:02 46.08775 -64.18162 38939 ft 501 kts 50°
2026-05-06 09:02 46.12420 -64.11685 38931 ft 501 kts 50°
2026-05-06 09:03 46.16802 -64.03882 38925 ft 500 kts 49°
2026-05-06 09:03 46.21170 -63.96078 38925 ft 500 kts 50°
2026-05-06 09:04 46.25540 -63.88247 38945 ft 501 kts 49°
2026-05-06 09:04 46.29923 -63.80375 38940 ft 503 kts 49°
2026-05-06 09:05 46.34311 -63.72470 38935 ft 505 kts 50°
2026-05-06 09:05 46.38712 -63.64519 38936 ft 506 kts 50°
2026-05-06 09:06 46.43120 -63.56531 38934 ft 508 kts 50°
2026-05-06 09:06 46.47531 -63.48517 38931 ft 509 kts 50°
2026-05-06 09:07 46.51946 -63.40470 38942 ft 509 kts 50°
2026-05-06 09:07 46.56354 -63.32414 38944 ft 509 kts 50°
2026-05-06 09:08 46.60751 -63.24353 38936 ft 509 kts 50°
2026-05-06 09:08 46.65148 -63.16271 38940 ft 509 kts 50°
2026-05-06 09:09 46.69539 -63.08174 38927 ft 509 kts 50°
2026-05-06 09:09 46.73920 -63.00074 38934 ft 509 kts 50°
2026-05-06 09:10 46.78270 -62.92006 38950 ft 509 kts 50°
2026-05-06 09:10 46.82639 -62.83880 38936 ft 509 kts 50°
2026-05-06 09:11 46.87007 -62.75731 38945 ft 509 kts 51°
2026-05-06 09:11 46.91375 -62.67557 38942 ft 510 kts 51°
2026-05-06 09:12 46.95738 -62.59370 38942 ft 511 kts 51°
2026-05-06 09:12 47.00105 -62.51152 38942 ft 511 kts 51°
2026-05-06 09:13 47.04467 -62.42916 38942 ft 512 kts 51°
2026-05-06 09:13 47.08826 -62.34664 38942 ft 512 kts 51°
2026-05-06 09:14 47.13186 -62.26384 38938 ft 513 kts 51°
2026-05-06 09:14 47.17537 -62.18095 38967 ft 513 kts 51°
2026-05-06 09:15 47.21893 -62.09772 38953 ft 514 kts 51°
2026-05-06 09:15 47.26247 -62.01429 38930 ft 513 kts 51°
2026-05-06 09:16 47.30581 -61.93097 38940 ft 512 kts 51°
2026-05-06 09:16 47.34909 -61.84752 38914 ft 512 kts 51°
2026-05-06 09:17 47.39228 -61.76399 38914 ft 512 kts 51°
2026-05-06 09:17 47.43533 -61.68048 38918 ft 511 kts 52°
2026-05-06 09:18 47.47837 -61.59674 38921 ft 511 kts 52°
2026-05-06 09:18 47.52136 -61.51283 38920 ft 512 kts 52°
2026-05-06 09:19 47.56427 -61.42884 38923 ft 512 kts 52°
2026-05-06 09:19 47.60689 -61.34514 38939 ft 512 kts 52°
2026-05-06 09:20 47.65005 -61.26012 38954 ft 513 kts 52°
2026-05-06 09:20 47.69259 -61.17606 38947 ft 514 kts 52°
2026-05-06 09:21 47.73546 -61.09110 38945 ft 514 kts 52°
2026-05-06 09:21 47.77824 -61.00604 38946 ft 514 kts 52°
2026-05-06 09:22 47.82102 -60.92072 38951 ft 514 kts 52°
2026-05-06 09:22 47.86368 -60.83539 38950 ft 513 kts 52°
2026-05-06 09:23 47.90616 -60.75012 38945 ft 513 kts 53°
2026-05-06 09:23 47.94859 -60.66471 38951 ft 512 kts 52°
2026-05-06 09:24 47.99095 -60.57916 38944 ft 513 kts 53°
2026-05-06 09:24 48.03338 -60.49321 38946 ft 514 kts 53°
2026-05-06 09:25 48.07580 -60.40699 38943 ft 515 kts 53°
2026-05-06 09:25 48.11818 -60.32059 38942 ft 516 kts 53°
2026-05-06 09:26 48.16059 -60.23386 38946 ft 516 kts 53°
2026-05-06 09:26 48.20297 -60.14689 38946 ft 517 kts 53°
2026-05-06 09:27 48.24529 -60.05979 38959 ft 517 kts 53°
2026-05-06 09:27 48.28755 -59.97252 38959 ft 516 kts 53°
2026-05-06 09:28 48.32967 -59.88526 38955 ft 516 kts 53°
2026-05-06 09:28 48.37172 -59.79786 38950 ft 515 kts 53°
2026-05-06 09:29 48.41363 -59.71047 38967 ft 515 kts 53°
2026-05-06 09:29 48.45544 -59.62302 38959 ft 515 kts 53°
2026-05-06 09:30 48.49726 -59.53527 38948 ft 515 kts 53°
2026-05-06 09:30 48.53901 -59.44735 38955 ft 515 kts 53°
2026-05-06 09:31 48.58068 -59.35933 38952 ft 516 kts 53°
2026-05-06 09:31 48.62236 -59.27101 38948 ft 516 kts 53°
2026-05-06 09:32 48.66392 -59.18265 38950 ft 516 kts 53°
2026-05-06 09:32 48.70518 -59.09464 38956 ft 516 kts 53°
2026-05-06 09:33 48.74667 -59.00585 38954 ft 516 kts 53°
2026-05-06 09:33 48.78809 -58.91692 38957 ft 517 kts 53°
2026-05-06 09:34 48.82950 -58.82770 38954 ft 517 kts 53°
2026-05-06 09:34 48.87087 -58.73828 38959 ft 517 kts 53°
2026-05-06 09:35 48.91207 -58.64895 38954 ft 515 kts 53°
2026-05-06 09:35 48.95301 -58.55985 38941 ft 512 kts 53°
2026-05-06 09:36 48.99369 -58.47102 38950 ft 510 kts 53°
2026-05-06 09:36 49.03415 -58.38241 38947 ft 509 kts 54°
2026-05-06 09:37 49.07455 -58.29364 38947 ft 509 kts 54°
2026-05-06 09:37 49.11484 -58.20482 38956 ft 510 kts 54°
2026-05-06 09:38 49.15517 -58.11561 38951 ft 510 kts 54°
2026-05-06 09:38 49.19544 -58.02622 38956 ft 512 kts 54°
2026-05-06 09:39 49.23577 -57.93641 38951 ft 512 kts 54°
2026-05-06 09:39 49.27607 -57.84635 38951 ft 513 kts 54°
2026-05-06 09:40 49.31628 -57.75618 38945 ft 513 kts 54°
2026-05-06 09:40 49.37658 -57.62044 38952 ft 514 kts 54°
2026-05-06 09:41 49.41671 -57.52970 38953 ft 514 kts 54°
2026-05-06 09:41 49.45682 -57.43871 38933 ft 513 kts 54°
2026-05-06 09:42 49.49646 -57.34842 38942 ft 512 kts 54°
2026-05-06 09:42 49.53624 -57.25753 38946 ft 512 kts 54°
2026-05-06 09:43 49.57595 -57.16653 38946 ft 512 kts 54°
2026-05-06 09:43 49.61552 -57.07551 38946 ft 511 kts 54°
2026-05-06 09:44 49.65510 -56.98418 38950 ft 512 kts 54°
2026-05-06 09:44 49.69470 -56.89248 38942 ft 514 kts 54°
2026-05-06 09:45 49.73428 -56.80049 38937 ft 515 kts 54°
2026-05-06 09:45 49.77389 -56.70810 38943 ft 515 kts 54°
2026-05-06 09:46 49.81343 -56.61556 38944 ft 516 kts 54°
2026-05-06 09:46 49.85299 -56.52267 38937 ft 516 kts 54°
2026-05-06 09:47 49.89248 -56.42959 38932 ft 516 kts 54°
2026-05-06 09:47 49.93184 -56.33652 38935 ft 516 kts 54°
2026-05-06 09:48 49.97112 -56.24327 38939 ft 515 kts 54°
2026-05-06 09:48 50.00363 -56.16585 38927 ft 514 kts 54°
2026-05-06 09:49 50.04262 -56.07271 38925 ft 513 kts 54°
2026-05-06 09:49 50.08144 -55.97965 38932 ft 513 kts 54°
2026-05-06 09:50 50.12022 -55.88637 38932 ft 513 kts 54°
2026-05-06 09:50 50.15895 -55.79286 38920 ft 513 kts 54°
2026-05-06 09:51 50.19758 -55.69927 38924 ft 513 kts 54°
2026-05-06 09:51 50.23614 -55.60550 38935 ft 513 kts 54°
2026-05-06 09:52 50.27441 -55.51210 38919 ft 514 kts 54°
2026-05-06 09:52 50.31286 -55.41795 38914 ft 514 kts 54°
2026-05-06 09:53 50.35147 -55.32305 38915 ft 513 kts 55°
2026-05-06 09:53 50.38951 -55.22920 38926 ft 513 kts 55°
2026-05-06 09:54 50.42768 -55.13471 38918 ft 513 kts 55°
2026-05-06 09:54 50.46575 -55.04009 38913 ft 512 kts 55°
2026-05-06 09:55 50.50366 -54.94557 38917 ft 512 kts 55°
2026-05-06 09:55 50.54150 -54.85086 38915 ft 511 kts 55°
2026-05-06 09:56 50.57926 -54.75601 38913 ft 511 kts 56°
2026-05-06 09:56 50.61691 -54.66109 38921 ft 512 kts 56°
2026-05-06 09:57 50.65456 -54.56584 38919 ft 512 kts 56°
2026-05-06 09:57 50.69210 -54.47050 38931 ft 512 kts 56°
2026-05-06 09:58 50.72951 -54.37514 38916 ft 510 kts 56°
2026-05-06 09:58 50.76669 -54.28000 38916 ft 509 kts 56°
2026-05-06 09:59 50.80373 -54.18490 38916 ft 507 kts 56°
2026-05-06 09:59 50.84059 -54.08989 38939 ft 507 kts 56°
2026-05-06 10:00 50.87738 -53.99475 38924 ft 506 kts 56°
2026-05-06 10:00 50.91405 -53.89954 38931 ft 506 kts 56°
2026-05-06 10:01 50.95061 -53.80427 38929 ft 506 kts 56°
2026-05-06 10:01 50.98714 -53.70873 38938 ft 506 kts 56°
2026-05-06 10:02 51.02361 -53.61299 38932 ft 508 kts 56°
2026-05-06 10:02 51.06013 -53.51674 38941 ft 508 kts 56°
2026-05-06 10:03 51.09643 -53.42073 39187 ft 510 kts 56°
2026-05-06 10:03 51.11465 -53.37240 39449 ft 508 kts 56°
2026-05-06 10:03 51.13278 -53.32424 39681 ft 508 kts 57°
2026-05-06 10:04 51.15092 -53.27595 39808 ft 509 kts 57°
2026-05-06 10:04 51.16864 -53.22713 39852 ft 511 kts 60°
2026-05-06 10:04 51.19829 -53.12376 39935 ft 514 kts 65°
2026-05-06 10:05 51.22636 -53.01893 39952 ft 513 kts 65°
2026-05-06 10:05 51.25447 -52.91438 39954 ft 513 kts 65°
2026-05-06 10:06 51.28276 -52.80999 39953 ft 511 kts 65°
2026-05-06 10:06 51.31082 -52.70651 39947 ft 510 kts 65°
2026-05-06 10:07 51.33885 -52.60262 39955 ft 509 kts 65°
2026-05-06 10:07 51.36675 -52.49869 39959 ft 508 kts 65°
2026-05-06 10:08 51.39447 -52.39488 39965 ft 506 kts 65°
2026-05-06 10:08 51.42199 -52.29138 39955 ft 504 kts 65°
2026-05-06 10:09 51.44928 -52.18830 39961 ft 502 kts 65°
2026-05-06 10:09 51.47641 -52.08537 39964 ft 500 kts 65°
2026-05-06 10:10 51.50341 -51.98247 39985 ft 500 kts 66°
2026-05-06 10:10 51.53026 -51.87964 39976 ft 500 kts 66°
2026-05-06 10:11 51.55705 -51.77662 39974 ft 499 kts 66°
2026-05-06 10:11 51.58373 -51.67351 39975 ft 499 kts 66°
2026-05-06 10:12 51.61029 -51.57042 39978 ft 499 kts 66°
2026-05-06 10:12 51.63679 -51.46704 39986 ft 500 kts 66°
2026-05-06 10:13 51.66323 -51.36346 39977 ft 500 kts 66°
2026-05-06 10:13 51.68958 -51.25977 39986 ft 501 kts 66°
2026-05-06 10:14 51.71589 -51.15575 39981 ft 501 kts 66°
2026-05-06 10:14 51.74214 -51.05147 40000 ft 502 kts 66°
2026-05-06 10:15 51.76830 -50.94704 39992 ft 503 kts 66°
2026-05-06 10:15 51.79442 -50.84229 39999 ft 503 kts 66°
2026-05-06 10:16 51.82044 -50.73746 39990 ft 503 kts 66°
2026-05-06 10:16 51.84637 -50.63249 39996 ft 502 kts 66°
2026-05-06 10:17 51.87217 -50.52755 40009 ft 502 kts 66°
2026-05-06 10:17 51.89789 -50.42243 40007 ft 502 kts 66°
2026-05-06 10:18 51.92351 -50.31721 40003 ft 502 kts 66°
2026-05-06 10:18 51.94899 -50.21205 40009 ft 502 kts 66°
2026-05-06 10:19 51.97442 -50.10667 40031 ft 502 kts 66°
2026-05-06 10:19 51.99932 -50.00097 40015 ft 502 kts 70°
2026-05-06 10:20 52.01677 -49.89179 40029 ft 503 kts 76°
2026-05-06 10:20 52.03211 -49.78078 40018 ft 504 kts 76°
2026-05-06 10:21 52.04748 -49.66984 40031 ft 504 kts 76°
2026-05-06 10:21 52.06309 -49.55881 40044 ft 504 kts 76°
2026-05-06 10:22 52.07871 -49.44781 40036 ft 504 kts 76°
2026-05-06 10:22 52.09402 -49.33837 40036 ft 503 kts 75°
2026-05-06 10:23 52.10939 -49.22754 40034 ft 502 kts 76°
2026-05-06 10:23 52.12461 -49.11688 40039 ft 501 kts 76°
2026-05-06 10:24 52.13972 -49.00614 40047 ft 501 kts 76°
2026-05-06 10:24 52.15472 -48.89537 40059 ft 501 kts 76°
2026-05-06 10:25 52.16960 -48.78469 40049 ft 501 kts 76°
2026-05-06 10:25 52.18439 -48.67384 40056 ft 500 kts 76°
2026-05-06 10:26 52.19906 -48.56300 40054 ft 500 kts 76°
2026-05-06 10:26 52.21361 -48.45222 40060 ft 500 kts 76°
2026-05-06 10:27 52.22809 -48.34117 40057 ft 501 kts 76°
2026-05-06 10:27 52.24247 -48.22994 40065 ft 501 kts 76°
2026-05-06 10:28 52.25666 -48.11938 40069 ft 501 kts 76°
2026-05-06 10:28 52.27083 -48.00800 40076 ft 502 kts 76°
2026-05-06 10:29 52.28492 -47.89642 40072 ft 502 kts 76°
2026-05-06 10:29 52.29891 -47.78467 40081 ft 502 kts 76°
2026-05-06 10:30 52.31280 -47.67287 40079 ft 503 kts 76°
2026-05-06 10:30 52.32661 -47.56077 40086 ft 503 kts 76°
2026-05-06 10:31 52.34033 -47.44847 40082 ft 504 kts 77°
2026-05-06 10:31 52.35393 -47.33616 40087 ft 504 kts 77°
2026-05-06 10:32 52.36746 -47.22353 40097 ft 504 kts 77°
2026-05-06 10:32 52.38087 -47.11094 40096 ft 504 kts 77°
2026-05-06 10:33 52.39418 -46.99817 40094 ft 504 kts 77°
2026-05-06 10:33 52.40737 -46.88550 40093 ft 504 kts 77°
2026-05-06 10:34 52.42045 -46.77271 40097 ft 504 kts 77°
2026-05-06 10:34 52.43341 -46.66002 40112 ft 504 kts 77°
2026-05-06 10:35 52.44629 -46.54704 40103 ft 504 kts 77°
2026-05-06 10:35 52.45690 -46.45317 40101 ft 504 kts 77°
2026-05-06 10:36 52.46957 -46.34024 40104 ft 504 kts 77°
2026-05-06 10:36 52.48212 -46.22720 40106 ft 504 kts 77°
2026-05-06 10:37 52.49458 -46.11405 40121 ft 504 kts 77°
2026-05-06 10:37 52.50694 -46.00077 40110 ft 504 kts 77°
2026-05-06 10:38 52.51918 -45.88748 40116 ft 504 kts 77°
2026-05-06 10:38 52.53130 -45.77418 40112 ft 503 kts 77°
2026-05-06 10:39 52.54330 -45.66108 40110 ft 503 kts 77°
2026-05-06 10:39 52.55518 -45.54791 40136 ft 502 kts 78°
2026-05-06 10:40 52.56695 -45.43476 40119 ft 502 kts 78°
2026-05-06 10:40 52.57859 -45.32173 40104 ft 502 kts 78°
2026-05-06 10:41 52.59013 -45.20862 40115 ft 501 kts 78°
2026-05-06 10:41 52.60148 -45.09627 40117 ft 501 kts 78°
2026-05-06 10:42 52.61285 -44.98249 40116 ft 501 kts 78°
2026-05-06 10:42 52.62399 -44.87000 40119 ft 501 kts 78°
2026-05-06 10:43 52.63509 -44.75665 40108 ft 502 kts 78°
2026-05-06 10:44 52.65155 -44.58652 40107 ft 502 kts 78°
2026-05-06 10:44 52.66240 -44.47290 40115 ft 502 kts 78°
2026-05-06 10:45 52.67313 -44.35930 40137 ft 502 kts 79°
2026-05-06 10:45 52.68376 -44.24557 40113 ft 502 kts 79°
2026-05-06 10:46 52.69426 -44.13195 40118 ft 501 kts 79°
2026-05-06 10:46 52.70464 -44.01852 40119 ft 500 kts 79°
2026-05-06 10:47 52.71491 -43.90505 40116 ft 500 kts 79°
2026-05-06 10:47 52.72505 -43.79170 40121 ft 500 kts 79°
2026-05-06 10:48 52.73510 -43.67814 40125 ft 500 kts 79°
2026-05-06 10:48 52.74503 -43.56462 40118 ft 500 kts 79°
2026-05-06 10:49 52.75486 -43.45090 40123 ft 500 kts 79°
2026-05-06 10:49 52.76457 -43.33738 40120 ft 500 kts 79°
2026-05-06 10:50 52.77418 -43.22363 40117 ft 500 kts 80°
2026-05-06 10:50 52.78368 -43.10988 40129 ft 500 kts 80°
2026-05-06 10:51 52.79303 -42.99661 40125 ft 501 kts 80°
2026-05-06 10:51 52.80238 -42.88188 40119 ft 501 kts 80°
2026-05-06 10:52 52.81151 -42.76854 40115 ft 501 kts 80°
2026-05-06 10:52 52.82058 -42.65444 40118 ft 501 kts 80°
2026-05-06 10:53 52.82956 -42.54016 40122 ft 501 kts 80°
2026-05-06 10:53 52.83841 -42.42602 40110 ft 501 kts 81°
2026-05-06 10:54 52.84716 -42.31176 40118 ft 500 kts 81°
2026-05-06 10:54 52.85579 -42.19760 40116 ft 500 kts 81°
2026-05-06 10:55 52.86431 -42.08333 40117 ft 500 kts 81°
2026-05-06 10:55 52.87272 -41.96907 40122 ft 500 kts 81°
2026-05-06 10:56 52.88103 -41.85468 40116 ft 500 kts 81°
2026-05-06 10:56 52.88922 -41.74029 40113 ft 501 kts 81°
2026-05-06 10:57 52.89731 -41.62578 40117 ft 501 kts 81°
2026-05-06 10:57 52.90529 -41.51122 40117 ft 501 kts 81°
2026-05-06 10:58 52.91316 -41.39660 40133 ft 501 kts 82°
2026-05-06 10:58 52.92092 -41.28196 40121 ft 501 kts 82°
2026-05-06 10:59 52.92857 -41.16719 40116 ft 501 kts 82°
2026-05-06 10:59 52.93610 -41.05252 40117 ft 500 kts 82°
2026-05-06 11:00 52.94352 -40.93784 40121 ft 500 kts 82°
2026-05-06 11:00 52.95083 -40.82311 40126 ft 500 kts 82°
2026-05-06 11:01 52.95804 -40.70843 40132 ft 500 kts 82°
2026-05-06 11:01 52.96512 -40.59375 40123 ft 500 kts 82°
2026-05-06 11:02 52.97204 -40.47979 40125 ft 500 kts 83°
2026-05-06 11:02 52.97891 -40.36508 40131 ft 500 kts 83°
2026-05-06 11:03 52.98566 -40.25037 40127 ft 500 kts 83°
2026-05-06 11:03 52.99230 -40.13563 40132 ft 500 kts 83°
2026-05-06 11:04 52.99894 -40.02085 40127 ft 499 kts 82°
2026-05-06 11:04 53.01213 -39.90822 40135 ft 497 kts 75°
2026-05-06 11:05 53.02863 -39.79689 40123 ft 497 kts 74°
2026-05-06 11:05 53.04499 -39.68549 40126 ft 497 kts 75°
2026-05-06 11:06 53.06097 -39.57372 40132 ft 497 kts 75°
2026-05-06 11:06 53.07668 -39.46183 40123 ft 497 kts 75°
2026-05-06 11:07 53.09226 -39.34984 40123 ft 497 kts 75°
2026-05-06 11:07 53.10774 -39.23789 40123 ft 497 kts 75°
2026-05-06 11:08 53.12313 -39.12579 40120 ft 497 kts 76°
2026-05-06 11:08 53.13843 -39.01355 40124 ft 497 kts 76°
2026-05-06 11:09 53.15362 -38.90129 40125 ft 497 kts 76°
2026-05-06 11:09 53.16862 -38.78953 40122 ft 497 kts 76°
2026-05-06 11:10 53.18361 -38.67700 40122 ft 497 kts 76°
2026-05-06 11:10 53.19848 -38.56445 40135 ft 497 kts 76°
2026-05-06 11:11 53.21326 -38.45175 40121 ft 497 kts 76°
2026-05-06 11:11 53.22792 -38.33910 40117 ft 497 kts 76°
2026-05-06 11:12 53.24246 -38.22640 40119 ft 496 kts 76°
2026-05-06 11:12 53.25689 -38.11371 40121 ft 496 kts 76°
2026-05-06 11:13 53.27120 -38.00103 40123 ft 496 kts 77°
2026-05-06 11:13 53.28542 -37.88817 40115 ft 496 kts 77°
2026-05-06 11:14 53.29953 -37.77525 40122 ft 496 kts 77°
2026-05-06 11:14 53.31353 -37.66229 40118 ft 496 kts 77°
2026-05-06 11:15 53.32742 -37.54926 40115 ft 496 kts 77°
2026-05-06 11:15 53.34120 -37.43623 40124 ft 496 kts 77°
2026-05-06 11:16 53.35487 -37.32309 40122 ft 496 kts 77°
2026-05-06 11:16 53.36841 -37.21008 40109 ft 495 kts 77°
2026-05-06 11:17 53.38184 -37.09699 40114 ft 495 kts 78°
2026-05-06 11:17 53.39509 -36.98459 40124 ft 495 kts 78°
2026-05-06 11:18 53.40829 -36.87152 40111 ft 495 kts 78°
2026-05-06 11:18 53.42140 -36.75830 40114 ft 495 kts 78°
2026-05-06 11:19 53.43439 -36.64506 40114 ft 495 kts 78°
2026-05-06 11:19 53.44728 -36.53169 40115 ft 494 kts 78°
2026-05-06 11:20 53.46006 -36.41831 40139 ft 494 kts 79°
2026-05-06 11:20 53.47273 -36.30496 40118 ft 494 kts 79°
2026-05-06 11:21 53.48529 -36.19147 40117 ft 494 kts 79°
2026-05-06 11:21 53.49771 -36.07818 40116 ft 494 kts 79°
2026-05-06 11:22 53.51004 -35.96475 40115 ft 493 kts 79°
2026-05-06 11:22 53.52226 -35.85126 40121 ft 493 kts 79°
2026-05-06 11:23 53.53435 -35.73789 40111 ft 493 kts 79°
2026-05-06 11:23 53.54634 -35.62438 40105 ft 493 kts 79°
2026-05-06 11:24 53.55822 -35.51083 40112 ft 493 kts 79°
2026-05-06 11:24 53.56800 -35.41651 40117 ft 493 kts 79°
2026-05-06 11:25 53.57969 -35.30284 40116 ft 493 kts 80°
2026-05-06 11:25 53.59126 -35.18919 40106 ft 493 kts 80°
2026-05-06 11:26 53.60273 -35.07532 40109 ft 493 kts 80°
2026-05-06 11:26 53.61409 -34.96149 40105 ft 493 kts 80°
2026-05-06 11:27 53.62536 -34.84747 40099 ft 493 kts 80°
2026-05-06 11:27 53.63651 -34.73339 40108 ft 493 kts 80°
2026-05-06 11:28 53.64755 -34.61936 40095 ft 493 kts 81°
2026-05-06 11:28 53.65848 -34.50515 40095 ft 493 kts 81°
2026-05-06 11:29 53.66932 -34.39087 40094 ft 493 kts 81°
2026-05-06 11:29 53.68003 -34.27667 40097 ft 493 kts 81°
2026-05-06 11:30 53.69057 -34.16304 40089 ft 493 kts 81°
2026-05-06 11:30 53.70107 -34.04859 40087 ft 493 kts 81°
2026-05-06 11:31 53.71146 -33.93422 40080 ft 493 kts 81°
2026-05-06 11:31 53.72174 -33.81970 40085 ft 493 kts 81°
2026-05-06 11:32 53.73191 -33.70513 40076 ft 493 kts 81°
2026-05-06 11:32 53.74196 -33.59066 40078 ft 493 kts 81°
2026-05-06 11:33 53.75192 -33.47598 40073 ft 493 kts 81°
2026-05-06 11:33 53.76175 -33.36138 40075 ft 493 kts 81°
2026-05-06 11:34 53.77149 -33.24652 40074 ft 493 kts 82°
2026-05-06 11:34 53.78111 -33.13177 40076 ft 493 kts 82°
2026-05-06 11:35 53.79063 -33.01680 40058 ft 494 kts 82°
2026-05-06 11:35 53.80004 -32.90182 40061 ft 494 kts 82°
2026-05-06 11:36 53.80936 -32.78660 40060 ft 494 kts 82°
2026-05-06 11:36 53.81856 -32.67129 40060 ft 494 kts 82°
2026-05-06 11:37 53.82765 -32.55606 40050 ft 494 kts 82°
2026-05-06 11:37 53.83663 -32.44075 40053 ft 493 kts 82°
2026-05-06 11:38 53.84548 -32.32554 40047 ft 493 kts 82°
2026-05-06 11:38 53.85421 -32.21056 40052 ft 492 kts 82°
2026-05-06 11:39 53.86283 -32.09547 40044 ft 492 kts 82°
2026-05-06 11:39 53.87134 -31.98032 40045 ft 492 kts 83°
2026-05-06 11:40 53.87973 -31.86524 40041 ft 492 kts 83°
2026-05-06 11:40 53.88802 -31.74996 40030 ft 493 kts 83°
2026-05-06 11:41 53.89621 -31.63456 40036 ft 493 kts 83°
2026-05-06 11:41 53.90429 -31.51908 40033 ft 494 kts 83°
2026-05-06 11:42 53.91227 -31.40335 40040 ft 494 kts 83°
2026-05-06 11:42 53.92013 -31.28766 40026 ft 493 kts 83°
2026-05-06 11:43 53.92787 -31.17223 40021 ft 492 kts 83°
2026-05-06 11:43 53.93543 -31.05761 40025 ft 491 kts 83°
2026-05-06 11:44 53.94663 -30.88488 40023 ft 491 kts 83°
2026-05-06 11:44 53.95395 -30.76968 40019 ft 490 kts 83°
2026-05-06 11:45 53.96116 -30.65452 40023 ft 490 kts 84°
2026-05-06 11:45 53.96824 -30.53950 40024 ft 490 kts 84°
2026-05-06 11:46 53.97523 -30.42434 40018 ft 490 kts 84°
2026-05-06 11:46 53.98210 -30.30914 40023 ft 490 kts 84°
2026-05-06 11:47 53.98888 -30.19372 40027 ft 492 kts 84°
2026-05-06 11:47 53.99558 -30.07792 40033 ft 493 kts 84°
2026-05-06 11:48 54.00453 -29.96244 40032 ft 493 kts 76°
2026-05-06 11:48 54.02079 -29.84906 40043 ft 493 kts 75°
2026-05-06 11:49 54.03755 -29.73577 40051 ft 494 kts 75°
2026-05-06 11:49 54.05396 -29.62214 40039 ft 495 kts 76°
2026-05-06 11:50 54.06999 -29.50844 40035 ft 493 kts 76°
2026-05-06 11:50 54.08576 -29.39510 40042 ft 492 kts 76°
2026-05-06 11:51 54.10145 -29.28171 40052 ft 492 kts 76°
2026-05-06 11:51 54.11705 -29.16818 40056 ft 493 kts 76°
2026-05-06 11:52 54.13258 -29.05429 40057 ft 493 kts 76°
2026-05-06 11:52 54.14789 -28.94119 40055 ft 493 kts 76°
2026-05-06 11:53 54.16317 -28.82741 40059 ft 492 kts 77°
2026-05-06 11:53 54.17835 -28.71354 40068 ft 492 kts 77°
2026-05-06 11:54 54.19343 -28.59947 40056 ft 492 kts 77°
2026-05-06 11:54 54.20836 -28.48560 40063 ft 491 kts 77°
2026-05-06 11:55 54.22317 -28.37183 40070 ft 491 kts 77°
2026-05-06 11:55 54.23789 -28.25785 40067 ft 491 kts 77°
2026-05-06 11:56 54.25248 -28.14393 40071 ft 491 kts 77°
2026-05-06 11:56 54.26698 -28.02980 40068 ft 491 kts 77°
2026-05-06 11:57 54.28136 -27.91568 40074 ft 491 kts 78°
2026-05-06 11:57 54.29564 -27.80140 40074 ft 491 kts 78°
2026-05-06 11:58 54.30980 -27.68710 40071 ft 491 kts 78°
2026-05-06 11:58 54.32388 -27.57260 40075 ft 491 kts 78°
2026-05-06 11:59 54.33783 -27.45815 40073 ft 491 kts 78°
2026-05-06 11:59 54.35159 -27.34433 40073 ft 491 kts 78°
2026-05-06 12:00 54.36532 -27.22967 40074 ft 491 kts 78°
2026-05-06 12:00 54.37894 -27.11507 40079 ft 491 kts 78°
2026-05-06 12:01 54.39246 -27.00030 40076 ft 491 kts 78°
2026-05-06 12:01 54.40586 -26.88549 40072 ft 490 kts 79°
2026-05-06 12:02 54.41913 -26.77082 40073 ft 490 kts 79°
2026-05-06 12:02 54.43230 -26.65601 40074 ft 490 kts 79°
2026-05-06 12:03 54.44536 -26.54117 40079 ft 489 kts 79°
2026-05-06 12:03 54.45829 -26.42644 40075 ft 489 kts 79°
2026-05-06 12:04 54.47111 -26.31157 40063 ft 489 kts 79°
2026-05-06 12:04 54.48382 -26.19671 40070 ft 489 kts 79°
2026-05-06 12:05 54.49640 -26.08195 40071 ft 489 kts 79°
2026-05-06 12:05 54.50888 -25.96701 40073 ft 489 kts 79°
2026-05-06 12:06 54.52124 -25.85213 40067 ft 488 kts 80°
2026-05-06 12:06 54.53351 -25.73700 40068 ft 488 kts 80°
2026-05-06 12:07 54.54565 -25.62200 40069 ft 488 kts 80°
2026-05-06 12:07 54.55768 -25.50692 40068 ft 488 kts 80°
2026-05-06 12:08 54.56953 -25.39248 40066 ft 488 kts 80°
2026-05-06 12:08 54.58135 -25.27725 40062 ft 488 kts 80°
2026-05-06 12:09 54.59305 -25.16197 40063 ft 488 kts 80°
2026-05-06 12:09 54.60463 -25.04677 40063 ft 488 kts 80°
2026-05-06 12:10 54.61611 -24.93146 40063 ft 488 kts 80°
2026-05-06 12:10 54.62748 -24.81601 40058 ft 488 kts 80°
2026-05-06 12:11 54.63875 -24.70038 40058 ft 489 kts 81°
2026-05-06 12:11 54.64992 -24.58467 40055 ft 489 kts 81°
2026-05-06 12:12 54.66099 -24.46875 40057 ft 489 kts 81°
2026-05-06 12:12 54.67193 -24.35294 40054 ft 489 kts 81°
2026-05-06 12:13 54.68096 -24.25642 40051 ft 489 kts 81°
2026-05-06 12:13 54.69172 -24.14026 40050 ft 489 kts 81°
2026-05-06 12:14 54.70238 -24.02397 40050 ft 490 kts 81°
2026-05-06 12:14 54.71291 -23.90780 40043 ft 489 kts 81°
2026-05-06 12:15 54.72333 -23.79147 40047 ft 489 kts 81°
2026-05-06 12:15 54.73363 -23.67523 40043 ft 489 kts 81°
2026-05-06 12:16 54.74382 -23.55896 40038 ft 489 kts 81°
2026-05-06 12:16 54.75391 -23.44257 40038 ft 489 kts 81°
2026-05-06 12:17 54.76387 -23.32619 40040 ft 489 kts 81°
2026-05-06 12:17 54.77373 -23.20965 40037 ft 489 kts 81°
2026-05-06 12:18 54.78349 -23.09298 40032 ft 489 kts 81°
2026-05-06 12:18 54.79314 -22.97625 40032 ft 489 kts 81°
2026-05-06 12:19 54.80266 -22.85953 40031 ft 489 kts 81°
2026-05-06 12:19 54.81209 -22.74261 40030 ft 489 kts 82°
2026-05-06 12:20 54.82139 -22.62580 40028 ft 489 kts 82°
2026-05-06 12:20 54.83059 -22.50879 40031 ft 489 kts 82°
2026-05-06 12:21 54.83967 -22.39184 40031 ft 489 kts 82°
2026-05-06 12:21 54.84865 -22.27467 40033 ft 489 kts 82°
2026-05-06 12:22 54.85750 -22.15763 40031 ft 490 kts 82°
2026-05-06 12:22 54.86626 -22.04043 40024 ft 490 kts 82°
2026-05-06 12:23 54.87490 -21.92303 40021 ft 490 kts 82°
2026-05-06 12:23 54.88343 -21.80567 40022 ft 490 kts 82°
2026-05-06 12:24 54.89185 -21.68818 40023 ft 490 kts 82°
2026-05-06 12:24 54.90015 -21.57071 40015 ft 490 kts 82°
2026-05-06 12:25 54.90829 -21.45392 40018 ft 490 kts 82°
2026-05-06 12:25 54.91637 -21.33627 40013 ft 490 kts 82°
2026-05-06 12:26 54.92434 -21.21866 40014 ft 490 kts 82°
2026-05-06 12:26 54.93219 -21.10085 40014 ft 490 kts 82°
2026-05-06 12:27 54.93994 -20.98302 40009 ft 491 kts 82°
2026-05-06 12:27 54.94758 -20.86490 40004 ft 491 kts 82°
2026-05-06 12:28 54.95511 -20.74679 40008 ft 491 kts 83°
2026-05-06 12:28 54.96252 -20.62863 40009 ft 492 kts 83°
2026-05-06 12:29 54.96983 -20.51026 40012 ft 492 kts 83°
2026-05-06 12:29 54.97703 -20.39174 40010 ft 492 kts 83°
2026-05-06 12:30 54.98407 -20.27396 40011 ft 493 kts 83°
2026-05-06 12:30 54.99105 -20.15532 40001 ft 493 kts 83°
2026-05-06 12:31 54.99792 -20.03666 40013 ft 493 kts 83°
2026-05-06 12:31 55.00239 -19.91731 39997 ft 494 kts 86°
2026-05-06 12:32 55.00444 -19.79757 40002 ft 495 kts 87°
2026-05-06 12:32 55.00627 -19.67775 40001 ft 495 kts 87°
2026-05-06 12:33 55.00821 -19.55800 40000 ft 495 kts 87°
2026-05-06 12:33 55.01017 -19.43803 39995 ft 495 kts 87°
2026-05-06 12:34 55.01204 -19.31810 39997 ft 495 kts 87°
2026-05-06 12:34 55.01378 -19.19827 39998 ft 495 kts 87°
2026-05-06 12:35 55.01539 -19.07837 39999 ft 495 kts 87°
2026-05-06 12:35 55.01688 -18.95857 39996 ft 495 kts 87°
2026-05-06 12:36 55.01825 -18.83874 40003 ft 495 kts 88°
2026-05-06 12:36 55.01951 -18.71880 40000 ft 495 kts 88°
2026-05-06 12:37 55.02065 -18.59871 39995 ft 495 kts 88°
2026-05-06 12:37 55.02168 -18.47871 39993 ft 496 kts 88°
2026-05-06 12:38 55.02258 -18.35934 39999 ft 496 kts 88°
2026-05-06 12:38 55.02336 -18.23921 40001 ft 496 kts 88°
2026-05-06 12:39 55.02403 -18.11886 39999 ft 497 kts 88°
2026-05-06 12:39 55.02458 -17.99851 39997 ft 497 kts 88°
2026-05-06 12:40 55.02502 -17.87813 39994 ft 497 kts 88°
2026-05-06 12:40 55.02533 -17.75775 39993 ft 497 kts 88°
2026-05-06 12:41 55.02553 -17.63724 39999 ft 497 kts 89°
2026-05-06 12:41 55.02560 -17.51683 39990 ft 496 kts 89°
2026-05-06 12:42 55.02556 -17.39662 39997 ft 496 kts 89°
2026-05-06 12:42 55.02540 -17.27665 39996 ft 495 kts 89°
2026-05-06 12:43 55.02512 -17.15665 39997 ft 495 kts 89°
2026-05-06 12:43 55.02472 -17.03673 39999 ft 495 kts 89°
2026-05-06 12:44 55.02421 -16.91686 39996 ft 495 kts 89°
2026-05-06 12:44 55.02358 -16.79761 40000 ft 495 kts 89°
2026-05-06 12:45 55.02283 -16.67764 39999 ft 495 kts 89°
2026-05-06 12:46 55.02148 -16.49751 40004 ft 496 kts 89°
2026-05-06 12:46 55.02044 -16.37717 39998 ft 497 kts 90°
2026-05-06 12:47 55.01927 -16.25683 39992 ft 497 kts 90°
2026-05-06 12:47 55.01798 -16.13640 39999 ft 497 kts 90°
2026-05-06 12:48 55.01658 -16.01615 40008 ft 497 kts 90°
2026-05-06 12:48 55.01505 -15.89573 39995 ft 497 kts 90°
2026-05-06 12:49 55.01341 -15.77530 40006 ft 497 kts 90°
2026-05-06 12:49 55.01165 -15.65498 40000 ft 497 kts 90°
2026-05-06 12:50 55.00977 -15.53454 40000 ft 497 kts 90°
2026-05-06 12:50 55.00777 -15.41420 40009 ft 497 kts 90°
2026-05-06 12:51 55.00565 -15.29369 40005 ft 498 kts 91°
2026-05-06 12:51 55.00342 -15.17322 40002 ft 498 kts 91°
2026-05-06 12:52 55.00108 -15.05262 40003 ft 498 kts 91°
2026-05-06 12:52 54.99929 -14.93218 40002 ft 498 kts 89°
2026-05-06 12:53 54.99997 -14.81165 40006 ft 498 kts 88°
2026-05-06 12:53 55.00077 -14.69116 40002 ft 498 kts 88°
2026-05-06 12:54 55.00104 -14.57136 40008 ft 498 kts 89°
2026-05-06 12:54 55.00102 -14.45003 40005 ft 498 kts 89°
2026-05-06 12:55 55.00089 -14.32940 40023 ft 498 kts 89°
2026-05-06 12:55 55.00066 -14.20881 40011 ft 498 kts 89°
2026-05-06 12:56 55.00034 -14.08881 40007 ft 499 kts 89°
2026-05-06 12:56 54.99604 -13.96761 40013 ft 499 kts 98°
2026-05-06 12:57 54.98107 -13.85035 40001 ft 499 kts 103°
2026-05-06 12:57 54.96468 -13.73274 40073 ft 502 kts 103°
2026-05-06 12:57 54.95652 -13.67374 40285 ft 502 kts 103°
2026-05-06 12:58 54.94843 -13.61473 40584 ft 500 kts 103°
2026-05-06 12:58 54.94041 -13.55598 40841 ft 499 kts 103°
2026-05-06 12:58 54.93240 -13.49720 40939 ft 501 kts 103°
2026-05-06 12:59 54.91625 -13.37901 41010 ft 503 kts 103°
2026-05-06 12:59 54.90003 -13.26127 41009 ft 499 kts 103°
2026-05-06 13:00 54.88381 -13.14454 41023 ft 496 kts 103°
2026-05-06 13:00 54.86749 -13.02808 41020 ft 496 kts 103°
2026-05-06 13:01 54.85373 -12.93059 41021 ft 497 kts 103°
2026-05-06 13:01 54.83726 -12.81474 41010 ft 498 kts 103°
2026-05-06 13:02 54.82055 -12.69796 41019 ft 499 kts 103°
2026-05-06 13:02 54.80371 -12.58119 41018 ft 500 kts 103°
2026-05-06 13:03 54.78670 -12.46417 41021 ft 501 kts 103°
2026-05-06 13:03 54.76959 -12.34730 41014 ft 501 kts 103°
2026-05-06 13:04 54.75235 -12.23043 41014 ft 500 kts 103°
2026-05-06 13:04 54.73502 -12.11379 41018 ft 500 kts 103°
2026-05-06 13:05 54.71761 -11.99748 41019 ft 500 kts 104°
2026-05-06 13:05 54.70008 -11.88119 41028 ft 500 kts 104°
2026-05-06 13:06 54.68245 -11.76506 41010 ft 499 kts 104°
2026-05-06 13:06 54.66471 -11.64906 41023 ft 499 kts 104°
2026-05-06 13:07 54.64688 -11.53331 41025 ft 499 kts 104°
2026-05-06 13:07 54.62893 -11.41760 41030 ft 499 kts 104°
2026-05-06 13:08 54.61089 -11.30209 41031 ft 499 kts 104°
2026-05-06 13:08 54.59273 -11.18661 41036 ft 499 kts 104°
2026-05-06 13:09 54.57446 -11.07124 41035 ft 499 kts 104°
2026-05-06 13:09 54.55607 -10.95597 41036 ft 499 kts 104°
2026-05-06 13:10 54.53756 -10.84065 41038 ft 499 kts 104°
2026-05-06 13:10 54.51895 -10.72558 41029 ft 499 kts 104°
2026-05-06 13:11 54.50025 -10.61066 41033 ft 498 kts 105°
2026-05-06 13:11 54.48149 -10.49617 41033 ft 497 kts 105°
2026-05-06 13:12 54.46262 -10.38181 41033 ft 497 kts 105°
2026-05-06 13:12 54.44368 -10.26776 41039 ft 496 kts 105°
2026-05-06 13:13 54.42463 -10.15375 41045 ft 497 kts 105°
2026-05-06 13:13 54.40546 -10.03980 41037 ft 497 kts 105°
2026-05-06 13:14 54.38617 -9.92591 41039 ft 497 kts 105°
2026-05-06 13:14 54.36677 -9.81209 41032 ft 498 kts 105°
2026-05-06 13:15 54.34738 -9.69903 41018 ft 497 kts 105°
2026-05-06 13:15 54.32777 -9.58546 41028 ft 497 kts 106°
2026-05-06 13:16 54.30808 -9.47217 41023 ft 497 kts 106°
2026-05-06 13:16 54.28827 -9.35889 41013 ft 496 kts 106°
2026-05-06 13:17 54.26838 -9.24583 41011 ft 496 kts 106°
2026-05-06 13:17 54.24838 -9.13287 41009 ft 496 kts 106°
2026-05-06 13:18 54.22829 -9.02012 41032 ft 496 kts 106°
2026-05-06 13:18 54.20806 -8.90728 41016 ft 497 kts 106°
2026-05-06 13:19 54.18772 -8.79450 41017 ft 497 kts 107°
2026-05-06 13:19 54.16728 -8.68189 41014 ft 497 kts 107°
2026-05-06 13:20 54.14674 -8.56941 41014 ft 496 kts 107°
2026-05-06 13:20 54.12611 -8.45714 40999 ft 496 kts 107°
2026-05-06 13:21 54.10541 -8.34512 40993 ft 496 kts 107°
2026-05-06 13:21 54.08456 -8.23303 40994 ft 496 kts 107°
2026-05-06 13:22 54.06361 -8.12104 40997 ft 496 kts 107°
2026-05-06 13:22 54.04258 -8.00929 41002 ft 496 kts 107°
2026-05-06 13:23 54.02142 -7.89751 41003 ft 496 kts 107°
2026-05-06 13:23 54.00017 -7.78589 41002 ft 497 kts 107°
2026-05-06 13:24 53.97879 -7.67426 40993 ft 496 kts 108°
2026-05-06 13:24 53.95736 -7.56306 40995 ft 495 kts 108°
2026-05-06 13:25 53.93583 -7.45196 40996 ft 495 kts 108°
2026-05-06 13:25 53.91422 -7.34108 41006 ft 495 kts 108°
2026-05-06 13:26 53.89265 -7.23104 40999 ft 495 kts 108°
2026-05-06 13:26 53.87087 -7.12055 41004 ft 494 kts 108°
2026-05-06 13:27 53.84896 -7.01008 41004 ft 494 kts 108°
2026-05-06 13:27 53.82698 -6.89987 41008 ft 494 kts 108°
2026-05-06 13:28 53.80489 -6.78969 41009 ft 494 kts 109°
2026-05-06 13:28 53.78271 -6.67971 41013 ft 494 kts 109°
2026-05-06 13:29 53.76044 -6.56988 41011 ft 494 kts 109°
2026-05-06 13:29 53.73809 -6.46028 41018 ft 494 kts 109°
2026-05-06 13:30 53.71562 -6.35068 41021 ft 494 kts 109°
2026-05-06 13:30 53.69306 -6.24127 41032 ft 494 kts 109°
2026-05-06 13:31 53.67037 -6.13181 41022 ft 494 kts 109°
2026-05-06 13:31 53.64757 -6.02242 41029 ft 494 kts 109°
2026-05-06 13:32 53.62597 -5.91932 41031 ft 495 kts 109°
2026-05-06 13:32 53.60298 -5.81015 41037 ft 495 kts 110°
2026-05-06 13:33 53.57990 -5.70110 41025 ft 494 kts 110°
2026-05-06 13:33 53.55676 -5.59235 41039 ft 494 kts 110°
2026-05-06 13:34 53.53893 -5.48116 41042 ft 493 kts 99°
2026-05-06 13:34 53.53295 -5.36651 41043 ft 492 kts 91°
2026-05-06 13:35 53.53118 -5.25139 41042 ft 493 kts 91°
2026-05-06 13:35 53.52848 -5.13632 41039 ft 493 kts 92°
2026-05-06 13:36 53.52470 -5.02109 41042 ft 494 kts 93°
2026-05-06 13:36 53.52077 -4.90602 41036 ft 494 kts 93°
2026-05-06 13:37 53.51689 -4.79082 41036 ft 494 kts 93°
2026-05-06 13:37 53.51294 -4.67565 41025 ft 494 kts 93°
2026-05-06 13:38 53.50889 -4.56046 41025 ft 494 kts 93°
2026-05-06 13:38 53.50473 -4.44537 41029 ft 494 kts 93°
2026-05-06 13:39 53.50045 -4.33012 41028 ft 494 kts 93°
2026-05-06 13:39 53.49606 -4.21487 41032 ft 494 kts 94°
2026-05-06 13:40 53.49158 -4.09971 41028 ft 494 kts 94°
2026-05-06 13:40 53.48569 -3.98471 41039 ft 494 kts 99°
2026-05-06 13:41 53.46898 -3.87314 41029 ft 493 kts 110°
2026-05-06 13:41 53.44575 -3.76491 41028 ft 493 kts 110°
2026-05-06 13:42 53.42296 -3.65624 41031 ft 494 kts 110°
2026-05-06 13:42 53.39746 -3.55041 41034 ft 493 kts 117°
2026-05-06 13:43 53.36691 -3.44683 41030 ft 493 kts 117°
2026-05-06 13:43 53.33700 -3.34351 41036 ft 493 kts 116°
2026-05-06 13:44 53.30730 -3.24080 41038 ft 494 kts 117°
2026-05-06 13:44 53.27708 -3.13696 41045 ft 494 kts 117°
2026-05-06 13:45 53.25205 -3.05128 41052 ft 493 kts 117°
2026-05-06 13:45 53.20192 -2.88053 40980 ft 489 kts 117°
2026-05-06 13:46 53.18702 -2.83002 40675 ft 483 kts 117°
2026-05-06 13:46 53.17697 -2.79600 40210 ft 484 kts 117°
2026-05-06 13:46 53.16205 -2.74559 39559 ft 487 kts 117°
2026-05-06 13:46 53.14705 -2.69504 39002 ft 480 kts 117°
2026-05-06 13:47 53.13250 -2.64605 38193 ft 469 kts 117°
2026-05-06 13:47 53.11809 -2.59766 37852 ft 463 kts 117°
2026-05-06 13:47 53.10383 -2.54990 37398 ft 460 kts 117°
2026-05-06 13:47 53.08967 -2.50255 37009 ft 455 kts 118°
2026-05-06 13:48 53.07560 -2.45559 36598 ft 452 kts 118°
2026-05-06 13:48 53.06165 -2.40906 36218 ft 448 kts 118°
2026-05-06 13:48 53.04775 -2.36286 35822 ft 445 kts 118°
2026-05-06 13:48 53.03292 -2.31835 35389 ft 437 kts 129°
2026-05-06 13:49 53.01202 -2.28277 34968 ft 426 kts 148°
2026-05-06 13:49 52.98730 -2.25696 34604 ft 418 kts 152°
2026-05-06 13:49 52.96251 -2.23186 34186 ft 416 kts 152°
2026-05-06 13:49 52.93798 -2.20677 33750 ft 414 kts 152°
2026-05-06 13:50 52.91355 -2.18158 33310 ft 412 kts 151°
2026-05-06 13:50 52.88938 -2.15651 32884 ft 409 kts 151°
2026-05-06 13:50 52.86537 -2.13153 32479 ft 406 kts 151°
2026-05-06 13:50 52.84155 -2.10673 32074 ft 403 kts 151°
2026-05-06 13:51 52.81793 -2.08213 31668 ft 401 kts 151°
2026-05-06 13:51 52.79439 -2.05764 31270 ft 398 kts 151°
2026-05-06 13:51 52.77104 -2.03338 30892 ft 396 kts 151°
2026-05-06 13:51 52.74778 -2.00925 30468 ft 394 kts 151°
2026-05-06 13:52 52.72468 -1.98531 30110 ft 391 kts 151°
2026-05-06 13:52 52.70166 -1.96148 29674 ft 389 kts 151°
2026-05-06 13:52 52.67878 -1.93784 29240 ft 387 kts 151°
2026-05-06 13:52 52.65605 -1.91438 28817 ft 385 kts 151°
2026-05-06 13:53 52.63340 -1.89103 28394 ft 383 kts 151°
2026-05-06 13:53 52.61086 -1.86782 27964 ft 381 kts 151°
2026-05-06 13:53 52.58844 -1.84476 27545 ft 380 kts 151°
2026-05-06 13:53 52.56602 -1.82173 27117 ft 379 kts 151°
2026-05-06 13:54 52.54373 -1.79887 26719 ft 378 kts 151°
2026-05-06 13:54 52.52142 -1.77602 26305 ft 377 kts 150°
2026-05-06 13:54 52.49955 -1.75363 25910 ft 376 kts 150°
2026-05-06 13:54 52.47735 -1.73094 25506 ft 375 kts 150°
2026-05-06 13:55 52.45495 -1.70807 25109 ft 375 kts 150°
2026-05-06 13:55 52.43313 -1.68582 24714 ft 375 kts 150°
2026-05-06 13:55 52.41071 -1.66298 24308 ft 375 kts 150°
2026-05-06 13:55 52.38856 -1.64044 23913 ft 375 kts 150°
2026-05-06 13:56 52.36646 -1.61798 23480 ft 375 kts 150°
2026-05-06 13:56 52.34460 -1.59579 23027 ft 375 kts 150°
2026-05-06 13:56 52.32244 -1.57332 22581 ft 374 kts 150°
2026-05-06 13:56 52.30038 -1.55097 22172 ft 373 kts 150°
2026-05-06 13:57 52.27831 -1.52863 21737 ft 372 kts 150°
2026-05-06 13:57 52.25637 -1.50645 21336 ft 371 kts 150°
2026-05-06 13:57 52.23443 -1.48432 20943 ft 370 kts 150°
2026-05-06 13:57 52.21266 -1.46201 20530 ft 370 kts 147°
2026-05-06 13:58 52.19309 -1.43753 20149 ft 371 kts 141°
2026-05-06 13:58 52.17360 -1.40983 19736 ft 371 kts 140°
2026-05-06 13:58 52.15441 -1.38176 19325 ft 371 kts 139°
2026-05-06 13:58 52.13515 -1.35382 18915 ft 371 kts 140°
2026-05-06 13:59 52.11586 -1.32628 18506 ft 372 kts 140°
2026-05-06 13:59 52.09628 -1.29867 18040 ft 372 kts 140°
2026-05-06 13:59 52.07669 -1.27129 17579 ft 372 kts 140°
2026-05-06 13:59 52.05704 -1.24395 17142 ft 371 kts 141°
2026-05-06 14:00 52.03770 -1.21714 16701 ft 370 kts 140°
2026-05-06 14:00 52.01814 -1.19005 16260 ft 369 kts 140°
2026-05-06 14:00 51.99860 -1.16300 15835 ft 369 kts 140°
2026-05-06 14:00 51.97908 -1.13603 15410 ft 368 kts 140°
2026-05-06 14:01 51.96026 -1.11008 14999 ft 368 kts 140°
2026-05-06 14:01 51.94075 -1.08318 14524 ft 369 kts 140°
2026-05-06 14:01 51.92116 -1.05621 14057 ft 370 kts 140°
2026-05-06 14:01 51.90148 -1.02913 13555 ft 371 kts 140°
2026-05-06 14:02 51.88176 -1.00202 13025 ft 372 kts 140°
2026-05-06 14:02 51.86281 -0.97594 12550 ft 366 kts 139°
2026-05-06 14:02 51.84680 -0.94622 12045 ft 338 kts 118°
2026-05-06 14:02 51.83745 -0.91303 11663 ft 312 kts 114°
2026-05-06 14:03 51.82847 -0.88216 11273 ft 301 kts 115°
2026-05-06 14:03 51.81912 -0.85148 10910 ft 308 kts 115°
2026-05-06 14:03 51.80957 -0.82043 10510 ft 309 kts 115°
2026-05-06 14:03 51.79992 -0.78945 10149 ft 304 kts 118°
2026-05-06 14:04 51.78642 -0.76364 9777 ft 301 kts 145°
2026-05-06 14:04 51.76800 -0.75052 9675 ft 287 kts 172°
2026-05-06 14:04 51.74870 -0.75166 9521 ft 273 kts 199°
2026-05-06 14:04 51.73268 -0.76603 9353 ft 259 kts 225°
2026-05-06 14:05 51.72042 -0.78617 9107 ft 253 kts 230°
2026-05-06 14:05 51.70849 -0.80686 8819 ft 251 kts 230°
2026-05-06 14:05 51.69665 -0.82759 8523 ft 251 kts 230°
2026-05-06 14:05 51.68500 -0.84839 8236 ft 249 kts 231°
2026-05-06 14:06 51.67334 -0.86905 7910 ft 249 kts 230°
2026-05-06 14:06 51.66169 -0.88973 7608 ft 249 kts 231°
2026-05-06 14:06 51.64998 -0.91037 7291 ft 249 kts 231°
2026-05-06 14:06 51.63839 -0.93102 7010 ft 248 kts 231°
2026-05-06 14:07 51.62681 -0.95173 6765 ft 245 kts 230°
2026-05-06 14:07 51.61491 -0.96664 6322 ft 250 kts 206°
2026-05-06 14:07 51.59815 -0.97241 5922 ft 251 kts 185°
2026-05-06 14:07 51.58082 -0.97155 5518 ft 251 kts 165°
2026-05-06 14:08 51.56568 -0.95864 5228 ft 244 kts 137°
2026-05-06 14:08 51.55403 -0.94131 5039 ft 239 kts 134°
2026-05-06 14:08 51.54184 -0.92317 5013 ft 240 kts 135°
2026-05-06 14:08 51.52959 -0.90488 4948 ft 240 kts 135°
2026-05-06 14:09 51.51740 -0.88650 4638 ft 241 kts 135°
2026-05-06 14:09 51.50520 -0.86808 4359 ft 240 kts 134°
2026-05-06 14:09 51.49300 -0.84977 4103 ft 239 kts 135°
2026-05-06 14:09 51.48153 -0.83075 3700 ft 236 kts 120°
2026-05-06 14:10 51.47652 -0.80626 3365 ft 230 kts 89°
2026-05-06 14:10 51.47652 -0.78094 3031 ft 228 kts 86°
2026-05-06 14:10 51.47652 -0.75562 2862 ft 223 kts 86°
2026-05-06 14:10 51.47657 -0.73151 2737 ft 207 kts 86°
2026-05-06 14:11 51.47664 -0.70953 2608 ft 186 kts 86°
2026-05-06 14:11 51.47671 -0.69000 2602 ft 168 kts 85°
2026-05-06 14:11 51.47680 -0.67130 2408 ft 166 kts 84°
2026-05-06 14:11 51.47688 -0.65300 2203 ft 163 kts 85°
2026-05-06 14:12 51.47694 -0.63478 1971 ft 162 kts 85°
2026-05-06 14:12 51.47699 -0.61760 1779 ft 146 kts 85°
2026-05-06 14:12 51.47704 -0.60232 1564 ft 136 kts 83°
2026-05-06 14:12 51.47711 -0.58724 1429 ft 138 kts 84°
2026-05-06 14:13 51.47717 -0.57226 1192 ft 130 kts 85°
2026-05-06 14:13 51.47726 -0.55769 1025 ft 132 kts 84°
2026-05-06 14:13 51.47732 -0.54312 825 ft 130 kts 83°
2026-05-06 14:13 51.47735 -0.52897 671 ft 126 kts 84°
2026-05-06 14:14 51.47739 -0.51485 478 ft 124 kts 83°
2026-05-06 14:14 51.47745 -0.50105 291 ft 124 kts 84°
2026-05-06 14:14 51.47750 -0.48764 158 ft 119 kts 86°
2026-05-06 14:14 51.47757 -0.47506 93 ft 103 kts 90°
2026-05-06 14:15 51.47758 -0.46577 97 ft 60 kts 89°
2026-05-06 14:15 51.47745 -0.46205 93 ft 22 kts 120°
2026-05-06 14:15 51.47653 -0.46087 94 ft 5 kts 145°
2026-05-06 14:15 51.47624 -0.46068 95 ft 5 kts 167°
2026-05-06 14:16 51.47576 -0.46075 94 ft 8 kts 190°
2026-05-06 14:16 51.47522 -0.46136 95 ft 13 kts 249°
2026-05-06 14:16 51.47517 -0.46279 90 ft 13 kts 269°
2026-05-06 14:16 51.47516 -0.46424 90 ft 13 kts 269°
2026-05-06 14:17 51.47515 -0.46568 91 ft 13 kts 270°
2026-05-06 14:17 51.47511 -0.46712 93 ft 13 kts 252°
2026-05-06 14:17 51.47494 -0.46852 94 ft 13 kts 268°
2026-05-06 14:17 51.47548 -0.46935 94 ft 11 kts 334°
2026-05-06 14:18 51.47583 -0.47040 94 ft 11 kts 270°
2026-05-06 14:18 51.47582 -0.47169 94 ft 12 kts 269°
2026-05-06 14:18 51.47582 -0.47355 94 ft 20 kts 270°
2026-05-06 14:18 51.47581 -0.47575 94 ft 20 kts 270°
2026-05-06 14:19 51.47580 -0.47788 94 ft 12 kts 270°
2026-05-06 14:19 51.47534 -0.47875 92 ft 12 kts 184°
2026-05-06 14:19 51.47448 -0.47873 94 ft 14 kts 180°
2026-05-06 14:19 51.47315 -0.47872 94 ft 20 kts 180°
2026-05-06 14:20 51.47187 -0.47871 91 ft 13 kts 179°
2026-05-06 14:20 51.47138 -0.47895 95 ft 7 kts 246°
2026-05-06 14:20 51.47133 -0.47972 93 ft 7 kts 270°
2026-05-06 14:20 51.47133 -0.48022 94 ft 2 kts 270°
2026-05-06 14:21 51.47133 -0.48023 94 ft 0 kts 270°